Location: Devargunta
(16.7631°N, 80.9077°E)
Time: 16:00:27
(UTC+00:00)

SL-24 R/B - RUBIN 2 - Pass Details

Date: 19 January 2021
Orbit: 575 x 1020 km, 64.6° (Epoch: 26 February)

Event Time Altitude Azimuth Distance (km) Brightness Sun altitude
Exits shadow 23:13:01 63° 161° (SSE) 777 4.0 -27.3°
Drops below altitude 10° 23:16:53 10° 158° (SSE) 2,054 6.6 -26.4°
Sets 23:19:02 0° 158° (SSE) 2,911 7.5 -25.9°
